Location: Dehesa de la Cepeda
(40.6574°N, 4.3013°W)
Time: 20:58:25
(UTC+00:00)

Vanguard 3 - Pass Details

Date: 01 August 2021
Orbit: 510 x 3260 km, 33.3° (Epoch: 22 September)

Event Time Altitude Azimuth Distance (km) Brightness Sun altitude
Rises 22:23:08 0° 277° (W) 6,766 12.4 -25.2°
Reaches altitude 10° 22:27:28 10° 274° (W) 5,952 11.9 -25.7°
Maximum altitude 22:46:10 55° 204° (SSW) 3,629 10.1 -27.3°
Enters shadow 22:53:41 39° 153° (SSE) 3,956 10.0 -28.0°
